Regional Weather Roundup
Issued by NWS

Home | Current Version | Previous Version | Graphics & Text | Print | Product List | Glossary On
Versions: 1 2 3 4 5 6 7 8 9 10 11 12 13 14 15 16 17 18 19 20 21 22 23 24 25 26 27 28 29 30 31 32 33 34 35 36 37 38 39 40 41 42 43 44 45 46 47 48 49 50
000
ASUS43 KDMX 200607
RWRIA

WEATHER ROUNDUP FOR IOWA
NATIONAL WEATHER SERVICE DES MOINES IA
100 AM CDT MON APR 20 2015

NOTE: "FAIR" INDICATES FEW OR NO CLOUDS BELOW 12,000 FEET WITH NO
SIGNIFICANT WEATHER AND/OR OBSTRUCTIONS TO VISIBILITY.

* - THESE STATIONS ARE NOT NWS STATIONS...THUS NOT UNDER NWS
QUALITY CONTROL.  THEY ALSO DO NOT REPORT WEATHER SUCH
AS PRECIPITATION OR FOG.

IAZ001>003-012>014-020>022-031>034-043>046-200700-
   NORTHWEST IOWA

CITY           SKY/WX    TMP DP  RH WIND       PRES   REMARKS
CARROLL *      CLEAR     45  37  76 NW18G25   29.66R
CHEROKEE *       N/A     43  38  83 NW16G22   29.70R
DENISON *      CLEAR     43  41  93 NW14      29.68S
LE MARS *      CLEAR     43  37  81 NW13      29.75S
ORANGE CITY *  CLEAR     41  36  81 NW15      29.72S
SHELDON *      PTCLDY    41  39  93 NW15G22   29.69F
SIOUX CITY       N/A     45  35  68 NW17G26   29.75S
6HR MIN TEMP:  45; 6HR MAX TEMP:  55;

SPENCER        MOCLDY    43  38  82 NW12      29.67S
6HR MIN TEMP:  43; 6HR MAX TEMP:  50;

STORM LAKE *   PTCLDY    43  39  87 NW17G24   29.68S
$$

IAZ055>058-069>071-079>083-090>094-200700-
   SOUTHWEST IOWA

CITY           SKY/WX    TMP DP  RH WIND       PRES   REMARKS
ATLANTIC *     CLEAR     45  37  76 NW16      29.68S
AUDUBON *      CLEAR     45  37  76 NW8       29.68S
CLARINDA *     PTCLDY    46  37  71 NW14G25   29.72R
COUNCIL BLFS * CLEAR     46  37  71 NW20G29   29.73S
CRESTON *      MOCLDY    45  39  81 NW18G25   29.65S
HARLAN  *        N/A     43  43 100 NW16      29.73S
LAMONI         CLOUDY    48  42  80 NW15      29.62F
6HR MIN TEMP:  48; 6HR MAX TEMP:  52; 6HR PCP:  0.03;

RED OAK *      PTCLDY    45  37  76 NW15      29.71R
SHENANDOAH *   CLEAR     46  37  71 NW13      29.73S
$$

IAZ047>049-059>061-072>074-084-200700-
   CENTRAL IOWA

CITY           SKY/WX    TMP DP  RH WIND       PRES   REMARKS
AMES           MOCLDY    47  40  76 NW21G29   29.57F
6HR MIN TEMP:  47; 6HR MAX TEMP:  50; 6HR PCP:  0.16;

ANKENY *       MOCLDY    48  45  87 NW14G21   29.58S
CHARITON *     CLOUDY    46  43  87 NW13      29.58F
DES MOINES     CLOUDY    49  42  77 NW16      29.58F
6HR MIN TEMP:  47; 6HR MAX TEMP:  51; 6HR PCP:  0.08;

GRINNELL*      RAIN      46  43  87 NW18G24   29.54S
KNOXVILLE *    MOCLDY    46  43  87 W13G20    29.56S
MARSHALLTOWN   LGT RAIN  46  42  86 NW20G32   29.53F
6HR MIN TEMP:  46; 6HR MAX TEMP:  51; 6HR PCP:  0.29;

PELLA *        DRIZZLE   46  46 100 NW13      29.57S
PERRY *          N/A     46  41  81 NW18G25   29.62S
$$

IAZ004>006-015-016-023>025-035-036-200700-
   NORTH CENTRAL IOWA

CITY           SKY/WX    TMP DP  RH WIND       PRES   REMARKS
ALGONA *       CLEAR     45  37  76 NW24G35   29.61S
CLARION *      CLOUDY    45  43  93 NW26      29.58R
ESTHERVILLE      N/A     41  37  86 NW18G26   29.64S
6HR MIN TEMP:  41; 6HR MAX TEMP:  48;

FORT DODGE *     N/A     45  36  70 NW14G22   29.62S
MASON CITY     CLOUDY    45  40  82 NW22G31   29.55F
6HR MIN TEMP:  45; 6HR MAX TEMP:  47; 6HR PCP:  0.07;

FOREST CITY *  CLOUDY    43  37  81 NW24G37   29.57R
IOWA FALLS *   CLOUDY    46  41  81 NW24      29.56S
$$

IAZ007>011-017>019-026>030-037>042-050>054-066-200700-
   NORTHEAST IOWA

CITY           SKY/WX    TMP DP  RH WIND       PRES   REMARKS
CEDAR RAPIDS   LGT RAIN  46  45  96 NW23G33   29.44R
6HR MIN TEMP:  46; 6HR MAX TEMP:  57; 6HR PCP:  0.68;

CHARLES CITY * RAIN      45  45 100 NW22G31   29.49F
CLINTON *        N/A     55  54  94 SW6       29.34F
DECORAH *      LGT RAIN  46  46 100 NW13G23   29.42F
DUBUQUE        CLOUDY    52  50  93 NW17G25   29.33F FOG
6HR MIN TEMP:  52; 6HR MAX TEMP:  61; 6HR PCP:  0.24;

MONTICELLO *   RAIN      50  50 100 NW14G21   29.37S
OELWEIN *      LGT RAIN  45  45 100 NW25G31   29.45S
WATERLOO       LGT RAIN  46  43  89 NW16G28   29.48S
6HR MIN TEMP:  46; 6HR MAX TEMP:  54; 6HR PCP:  0.43;

$$

IAZ064-065-067-068-078-200700-
   EAST CENTRAL IOWA

CITY           SKY/WX    TMP DP  RH WIND       PRES   REMARKS
DAVENPORT      CLOUDY    53  49  86 NW17      29.35S
6HR MIN TEMP:  53; 6HR MAX TEMP:  58; 6HR PCP:  0.18;

IOWA CITY      LGT RAIN  48  45  89 NW21G29   29.45R
6HR MIN TEMP:  48; 6HR MAX TEMP:  57; 6HR PCP:  0.31;

MT. PLEASANT * CLOUDY    47  45  91 NW15G24   29.47S
MUSCATINE *    CLOUDY    50  46  87 NW23G31   29.42S
QUAD CITIES    CLOUDY    54  50  86 W16G24    29.35S
6HR MIN TEMP:  54; 6HR MAX TEMP:  58; 6HR PCP:  0.17;

$$

IAZ062-063-075>077-085>089-095>099-200700-
   SOUTHEAST IOWA

CITY           SKY/WX    TMP DP  RH WIND       PRES   REMARKS
BURLINGTON     CLOUDY    49  47  93 NW15G26   29.44R FOG
6HR MIN TEMP:  49; 6HR MAX TEMP:  58; 6HR PCP:  0.05;

FAIRFIELD *    CLOUDY    46  43  87 NW22G37   29.50S
FORT MADISON * CLOUDY    48  45  87 NW20G30   29.47S
KEOKUK *       LGT RAIN  48  46  93 NW16G26   29.48R
OSKALOOSA *    CLOUDY    46  42  88 NW23      29.53F
CENTERVILLE *  CLOUDY    46  45  93 W14       29.60R
OTTUMWA        CLOUDY    46  42  86 NW18G29   29.53F
6HR MIN TEMP:  46; 6HR MAX TEMP:  57; 6HR PCP:  0.05;

WASHINGTON *   LGT RAIN  48  48 100 NW23G29   29.46F
$$

ABBREVIATIONS USED IN REMARKS
   TC - TEMPERATURES IN CELSIUS
  WCI - WIND CHILL INDEX
   HX - HEAT INDEX
  VSB - VISIBILITY
$$




USA.gov is the U.S. government's official web portal to all federal, state and local government web resources and services.